Flag for Canada Weather past 2 weeks in Saguenay, Quebec, Canada

Now
57 °F

Cool.


Feels Like: 55 °F
Forecast: 52 / 75 °F
Wind: 7 mph from South

Location: Jonquiere Airport

Current Time: Jul 29, 2014 at 11:12:59 PM

Latest Report: Jul 29, 2014 at 10:00 PM


Visibility: N/A

Pressure: 29.92 "Hg

Humidity: 82%

Dew point: 51 °F

Location of SaguenayLocation

Historic Weather in Saguenay — Graph

°F

Saguenay temperature yesterday

Maximum temperature yesterday: 67 °F (at 4:00 PM)
Minimum temperature yesterday: 55 °F (at 6:00 AM)
Average temperature yesterday: 60 °F

Past Weeks' High & Low Weather Summary

 TemperatureHumidityPressure
High84 °F (Jul 22, 12:00 PM)100% (Jul 27, 12:00 AM)30.27 "Hg (Jul 27, 12:00 AM)
Low52 °F (Jul 25, 6:00 AM)34% (Jul 24, 3:00 PM)29.59 "Hg (Jul 27, 5:00 PM)
Average66 °F73%29.88 "Hg
* Reported Jul 14 9:00 PM — Jul 29 9:00 PM, Saguenay, Weather by CustomWeather, © 2014

Note: Actual official high and low records may vary slightly from our data, if they occured in-between our weather recording intervals... More about our weather records

Advertising

Saguenay weather history for previous 24 hours

 ConditionsComfort  
Time TempWeatherWind HumidityBarometerVisibility
9:00 PM
Jul 29
59 °FCool.3 mph74%29.89 "HgN/A
8:00 PM64 °FMild.7 mph58%29.87 "HgN/A
7:00 PM66 °FMild.14 mph56%29.85 "HgN/A
6:00 PM68 °FMild.13 mph53%29.83 "HgN/A
5:00 PM69 °FMild.13 mph51%29.79 "HgN/A
4:00 PM69 °FMild.16 mph54%29.78 "HgN/A
3:00 PM69 °FMild.14 mph59%29.75 "HgN/A
2:00 PM68 °FMild.14 mph64%29.73 "HgN/A
1:00 PM66 °FMild.15 mph69%29.72 "HgN/A
12:00 PM64 °FMild.13 mph75%29.71 "HgN/A
11:00 AM62 °FCool.14 mph79%29.69 "HgN/A
10:00 AM57 °FCool.13 mph89%29.67 "HgN/A
9:00 AM55 °FCool.14 mph93%29.66 "HgN/A
8:00 AM54 °FCool.10 mph94%29.63 "HgN/A
7:00 AM54 °FCool.13 mph96%29.62 "HgN/A
6:00 AM54 °FCool.13 mph95%29.60 "HgN/A
5:00 AM55 °FCool.13 mph95%29.60 "HgN/A
4:00 AM55 °FCool.13 mph95%29.60 "HgN/A
3:00 AM56 °FCool.13 mph89%29.60 "HgN/A
2:00 AM56 °FCool.14 mph94%29.61 "HgN/A
1:00 AM57 °FCool.8 mph94%29.62 "HgN/A
12:00 AM58 °FCool.9 mph91%29.65 "HgN/A
11:00 PM
Jul 28
59 °FCool.7 mph88%29.67 "HgN/A
Weather by CustomWeather, © 2014

See weather overviewHow to use our weather pages